Location: G�rlitz
(51.1670°N, 15.0000°E)
Time: 10:04:05
(UTC+01:00)

ARIANE 6 FM1 Upper Stage - Pass Details

Date: 21 February 2026
Orbit: 523 x 607 km, 62.0° (Epoch: 7 March)

Event Time Altitude Azimuth Distance (km) Brightness Sun altitude
Rises 18:37:33 0° 303° (WNW) 2,660 7.1 -11.8°
Reaches altitude 10° 18:40:10 10° 286° (WNW) 1,767 6.5 -12.2°
Maximum altitude 18:43:03 20° 239° (WSW) 1,269 5.3 -12.7°
Drops below altitude 10° 18:45:57 10° 192° (SSW) 1,770 5.4 -13.1°
Sets 18:48:35 0° 175° (S) 2,665 6.1 -13.5°
